VA7SCH-13 Weather Reports


time (UTC)temp
C
wind
direction
speed
KPH
gust
KPH
rain 1hr
cm
rain 24hr
cm
rain mn
cm
humidity
%
barometer
mb
20260504150519 17 141 3.2 4.8 0.00 0.00 0.00 41 1015.7
20260504140519 12 0.0 0.0 0.00 0.00 0.00 55 1015.6
20260504130520 12 0.0 0.0 0.00 0.00 0.00 52 1015.8
20260504110520 14 253 0.0 3.2 0.00 0.00 0.00 45 1015.9
20260504100519 13 265 4.8 6.4 0.00 0.00 0.00 48 1014.7
20260504081539 13 272 3.2 4.8 0.00 0.00 0.00 46 1014.5
20260504080519 13 254 3.2 4.8 0.00 0.00 0.00 46 1014.5
20260504050537 19 288 8.0 11.3 0.00 0.00 0.00 34 1013.9
20260504045538 19 283 8.0 9.7 0.00 0.00 0.00 33 1013.9
20260504044536 19 280 6.4 8.0 0.00 0.00 0.00 33 1013.9
20260504043538 19 283 6.4 8.0 0.00 0.00 0.00 34 1013.9
20260504042536 18 280 6.4 8.0 0.00 0.00 0.00 36 1013.7
20260504041538 19 280 6.4 8.0 0.00 0.00 0.00 36 1013.8
20260504040536 19 282 6.4 8.0 0.00 0.00 0.00 35 1013.5
20260504035538 18 278 4.8 6.4 0.00 0.00 0.00 36 1013.5
20260504034536 18 274 4.8 6.4 0.00 0.00 0.00 38 1013.5
20260504033535 18 270 3.2 4.8 0.00 0.00 0.00 41 1013.5
20260504032535 19 276 3.2 4.8 0.00 0.00 0.00 42 1013.3
20260504031555 20 255 3.2 4.8 0.00 0.00 0.00 42 1013.5
20260504030535 20 260 1.6 4.8 0.00 0.00 0.00 41 1013.5
20260504025535 21 260 1.6 4.8 0.00 0.00 0.00 40 1012.1
20260504024535 21 238 1.6 4.8 0.00 0.00 0.00 39 1012.1
20260504023535 22 250 3.2 3.2 0.00 0.00 0.00 38 1012.2
20260504022535 22 248 0.0 4.8 0.00 0.00 0.00 38 1012.0
20260504021535 23 0.0 0.0 0.00 0.00 0.00 35 1012.0
20260504020535 23 0.0 0.0 0.00 0.00 0.00 34 1013.2
20260504015535 24 0.0 0.0 0.00 0.00 0.00 33 1013.2
20260504014535 25 0.0 0.0 0.00 0.00 0.00 31 1013.2
20260504013535 25 172 0.0 3.2 0.00 0.00 0.00 30 1013.2
20260504012535 25 156 1.6 4.8 0.00 0.00 0.00 29 1013.3
20260504011535 26 174 1.6 4.8 0.00 0.00 0.00 28 1013.3
20260504010555 26 157 3.2 6.4 0.00 0.00 0.00 27 1013.3
20260504005535 26 175 1.6 4.8 0.00 0.00 0.00 26 1013.5
20260504004535 27 154 4.8 6.4 0.00 0.00 0.00 25 1013.6
20260504003535 27 142 4.8 8.0 0.00 0.00 0.00 26 1013.7
20260504002535 27 158 0.0 3.2 0.00 0.00 0.00 24 1013.8
20260504001535 27 155 3.2 6.4 0.00 0.00 0.00 24 1013.8
20260504000554 27 134 4.8 6.4 0.00 0.00 0.00 24 1013.8
20260503235535 27 150 3.2 6.4 0.00 0.00 0.00 24 1014.8
20260503234534 28 136 6.4 8.0 0.00 0.00 0.00 24 1014.9
20260503233535 27 143 4.8 8.0 0.00 0.00 0.00 23 1014.9
20260503232534 28 149 4.8 8.0 0.00 0.00 0.00 24 1015.0
20260503231555 27 150 3.2 8.0 0.00 0.00 0.00 23 1015.0
20260503230555 28 149 6.4 9.7 0.00 0.00 0.00 23 1015.0
20260503225535 28 156 4.8 8.0 0.00 0.00 0.00 23 1015.0
20260503224534 28 143 4.8 9.7 0.00 0.00 0.00 23 1015.1
20260503223555 28 144 6.4 9.7 0.00 0.00 0.00 23 1015.1
20260503222534 28 166 6.4 9.7 0.00 0.00 0.00 22 1015.1
20260503221534 28 153 6.4 9.7 0.00 0.00 0.00 23 1016.2
20260503220534 28 152 6.4 8.0 0.00 0.00 0.00 23 1016.3
20260503215534 28 157 4.8 6.4 0.00 0.00 0.00 23 1016.3
20260503214534 28 170 4.8 8.0 0.00 0.00 0.00 24 1016.3
20260503213534 27 170 4.8 8.0 0.00 0.00 0.00 24 1016.4
20260503212534 27 165 3.2 6.4 0.00 0.00 0.00 24 1016.3
20260503211534 27 139 6.4 8.0 0.00 0.00 0.00 24 1017.4
20260503210534 27 146 6.4 11.3 0.00 0.00 0.00 24 1017.5
20260503205534 27 147 4.8 9.7 0.00 0.00 0.00 24 1017.5
20260503204534 27 146 4.8 8.0 0.00 0.00 0.00 23 1017.5
20260503203534 27 146 4.8 8.0 0.00 0.00 0.00 25 1017.5
20260503202533 26 146 6.4 9.7 0.00 0.00 0.00 25 1017.6
20260503201534 26 126 3.2 4.8 0.00 0.00 0.00 26 1017.5
20260503200533 26 129 4.8 8.0 0.00 0.00 0.00 25 1017.5
20260503195534 26 155 4.8 6.4 0.00 0.00 0.00 25 1018.6
20260503194533 25 145 4.8 6.4 0.00 0.00 0.00 27 1018.5
20260503193534 24 157 4.8 8.0 0.00 0.00 0.00 30 1018.6
20260503192533 23 145 4.8 8.0 0.00 0.00 0.00 31 1018.6
20260503191534 24 173 4.8 9.7 0.00 0.00 0.00 32 1018.7
20260503190534 23 131 3.2 6.4 0.00 0.00 0.00 33 1018.7
20260503185533 22 142 4.8 6.4 0.00 0.00 0.00 34 1018.7
20260503184533 22 144 4.8 6.4 0.00 0.00 0.00 35 1019.8
20260503183533 22 151 4.8 8.0 0.00 0.00 0.00 35 1019.8
20260503182554 22 150 3.2 6.4 0.00 0.00 0.00 35 1019.8
20260503181534 22 129 4.8 8.0 0.00 0.00 0.00 36 1019.9
20260503180534 22 157 1.6 8.0 0.00 0.00 0.00 37 1019.9
20260503175533 21 155 3.2 8.0 0.00 0.00 0.00 37 1019.7
20260503174533 21 149 4.8 6.4 0.00 0.00 0.00 37 1019.8
20260503173553 20 140 4.8 8.0 0.00 0.00 0.00 39 1019.8
20260503172533 20 158 4.8 9.7 0.00 0.00 0.00 39 1019.7
20260503171533 20 148 4.8 6.4 0.00 0.00 0.00 41 1020.9
20260503170533 19 141 4.8 8.0 0.00 0.00 0.00 40 1020.8